[[{"header":{"parameterUnit":"m.s-1","parameterCategory":1,"la1":30.2991,"la2":30.254,"lo1":-89.0895,"lo2":-89.0444,"dy":0.0017,"dx":0.0017,"nx":28,"ny":28,"refTime":"2024-04-17T09:00:00:Z","depth":0,"parameterNumber":2,"parameterNumberName":"U-component_of_WINDS"},"data":[0,0,0,0,0,0,0,0,0,0,0,0,0,0,0,0,0,0,0,0,0,0,0,0,0,0,0,0,0,0,0,0,0,0,0,0,0,0,0,0,0,0,0,0,0,0,0,0,0,0,0,0,0,0,0,0,0,0,-2.4615,-2.4615,0,-2.46,-2.46,-2.46,-2.454,-2.4539,-2.4537,-2.4536,-2.4522,-2.4523,-2.4524,0,0,0,0,0,0,0,0,0,0,0,0,0,-2.4592,-2.4592,-2.4615,-2.4615,-2.4614,-2.46,-2.46,-2.46,-2.454,-2.4539,-2.4537,-2.4535,-2.4522,-2.4523,-2.4524,0,0,0,0,0,0,0,0,0,0,0,0,0,-2.4592,-2.4593,-2.4615,-2.4583,-2.458,-2.46,-2.46,-2.46,-2.4541,-2.4539,-2.4537,-2.4535,-2.4521,-2.4523,-2.4524,-2.4574,0,0,-2.4528,-2.4529,0,0,0,0,0,0,0,0,-2.4592,-2.4593,-2.4588,-2.4585,-2.4582,-2.457,-2.4587,-2.4591,-2.4541,-2.4556,-2.4536,-2.4534,-2.454,-2.4539,-2.4541,-2.4574,-2.4573,-2.4528,-2.4529,-2.453,-2.453,0,0,0,0,0,0,0,-2.4592,-2.4593,-2.4609,-2.4588,-2.4584,-2.457,-2.4567,-2.4587,-2.456,-2.4554,-2.455,-2.4549,-2.4538,-2.454,-2.454,-2.4573,-2.4528,-2.4529,-2.453,-2.4531,-2.4646,-2.4648,0,0,0,0,0,0,-2.4596,-2.4594,-2.4609,-2.4609,-2.4582,-2.4572,-2.4569,-2.4576,-2.4559,-2.4555,-2.4551,-2.4546,-2.4539,-2.4539,-2.454,-2.4597,-2.453,-2.4531,-2.4532,-2.4644,-2.4646,-2.4649,0,0,0,0,0,0,-2.4596,-2.4598,-2.461,-2.46,-2.46,-2.4574,-2.4582,-2.4577,-2.4579,-2.4556,-2.4551,-2.4558,-2.4537,-2.4538,-2.4566,-2.4596,-2.4532,-2.4533,-2.4641,-2.4645,-2.4648,-2.4713,0,0,0,0,0,0,-2.4596,-2.4599,-2.4617,-2.4601,-2.4601,-2.4636,-2.4584,-2.4578,-2.4581,-2.4575,-2.4562,-2.4558,-2.4535,-2.4564,-2.4567,-2.4596,-2.4534,-2.4638,-2.4643,-2.4647,-2.4708,-2.4718,-2.4726,0,0,0,0,0,-2.4595,-2.4636,-2.4618,-2.4621,-2.4624,-2.4638,-2.4638,-2.4611,-2.4584,-2.4603,-2.4588,-2.4558,-2.4593,-2.4568,-2.4571,-2.4601,-2.4636,-2.4641,-2.4646,-2.4703,-2.4716,-2.4726,0,0,0,0,0,0,-2.4656,-2.4633,-2.4613,-2.465,-2.4647,-2.4628,-2.465,-2.4625,-2.463,-2.4624,-2.4591,-2.4588,-2.4621,-2.4614,-2.4587,-2.4649,-2.4609,-2.4615,-2.4652,-2.4663,-2.4673,-2.4673,-2.4535,0,0,0,0,0,-2.4674,-2.4688,-2.4667,-2.4702,-2.4701,-2.4676,-2.4682,-2.4661,-2.4656,-2.4655,-2.4642,-2.4639,-2.4649,-2.4656,-2.4664,-2.4707,-2.4703,-2.4729,-2.4739,-2.4746,-2.4751,-2.4774,-2.4785,-2.4665,-2.4665,-2.4665,0,0,-2.4711,-2.47,-2.4711,-2.4714,-2.4708,-2.4723,-2.4675,-2.4693,-2.4704,-2.4657,-2.4683,-2.4674,-2.4668,-2.4704,-2.472,-2.4699,-2.4784,-2.4753,-2.4759,-2.476,-2.478,-2.4791,-2.4801,-2.4669,-2.4668,-2.4667,0,0,-2.4785,-2.4779,-2.4806,-2.4803,-2.4796,-2.4779,-2.4786,-2.4772,-2.4764,-2.479,-2.4755,-2.4768,-2.4786,-2.4783,-2.4784,-2.4859,-2.4832,-2.4863,-2.4911,-2.4933,-2.4942,-2.4951,-2.4977,-2.4987,-2.4868,-2.4868,-2.4868,0,-2.4831,-2.4852,-2.4824,-2.4844,-2.4847,-2.4806,-2.4834,-2.4832,-2.4828,-2.4831,-2.4808,-2.483,-2.4823,-2.4858,-2.4876,-2.4879,-2.4886,-2.4863,-2.4943,-2.4951,-2.4959,-2.4983,-2.4993,-2.4872,-2.4872,-2.4871,-2.4871,0,-2.491,-2.4925,-2.4949,-2.4946,-2.4951,-2.4975,-2.4951,-2.496,-2.494,-2.4926,-2.4953,-2.4944,-2.4949,-2.4956,-2.4937,-2.4988,-2.4976,-2.4949,-2.4909,-2.4974,-2.4997,-2.5006,-2.4877,-2.4876,-2.4875,-2.4874,0,0,-2.502,-2.5002,-2.5011,-2.501,-2.5,-2.5011,-2.5034,-2.5039,-2.5048,-2.5047,-2.5065,-2.5082,-2.5057,-2.5059,-2.5039,-2.5059,-2.5118,-2.5029,-2.5029,-2.5045,-2.5174,-2.5193,-2.5205,-2.5101,-2.5103,-2.5104,-2.5174,0,-2.509,-2.5127,-2.5103,-2.5144,-2.5158,-2.5121,-2.514,-2.5137,-2.5125,-2.5136,-2.5123,-2.5135,-2.5102,-2.5102,-2.512,-2.5107,-2.5143,-2.5102,-2.5117,-2.5118,-2.5118,-2.5216,-2.5237,-2.5303,-2.5183,-2.5184,-2.5186,0,-2.5176,-2.5179,-2.5222,-2.521,-2.5215,-2.5233,-2.5236,-2.5247,-2.5242,-2.5233,-2.5235,-2.5211,-2.5233,-2.5194,-2.5224,-2.5196,-2.5202,-2.5196,-2.5198,-2.5197,-2.5154,-2.5217,-2.5324,-2.5334,-2.5199,-2.5198,-2.5197,0,-2.5251,-2.5266,-2.5294,-2.5294,-2.5281,-2.5294,-2.529,-2.5283,-2.5288,-2.5292,-2.5294,-2.5301,-2.5304,-2.5309,-2.5287,-2.5261,-2.532,-2.528,-2.5312,-2.5313,-2.5324,-2.5324,-2.5432,-2.533,-2.533,-2.533,-2.533,0,-2.533,-2.5358,-2.5327,-2.5344,-2.5374,-2.5347,-2.5377,-2.5368,-2.5363,-2.5378,-2.5347,-2.5361,-2.5332,-2.5344,-2.5327,-2.5354,-2.5356,-2.5349,-2.5344,-2.5351,-2.5352,-2.5352,-2.5347,-2.5333,-2.5332,-2.5332,-2.5331,0,-2.5418,-2.5399,-2.5426,-2.5412,-2.5409,-2.5432,-2.542,-2.5435,-2.5422,-2.5441,-2.5444,-2.5424,-2.5436,-2.5415,-2.5425,-2.5414,-2.5452,-2.544,-2.5453,-2.5449,-2.5482,-2.5479,-2.5594,-2.5607,-2.5498,-2.5499,-2.55,0,-2.5469,-2.549,-2.5478,-2.5486,-2.5483,-2.5496,-2.5501,-2.5475,-2.5482,-2.5479,-2.5495,-2.5505,-2.5511,-2.5533,-2.5519,-2.5527,-2.5514,-2.5554,-2.5515,-2.5521,-2.5513,-2.5512,-2.5514,-2.5562,-2.5563,-2.5564,-2.5565,0,-2.5562,-2.5552,-2.556,-2.5566,-2.5573,-2.5576,-2.5577,-2.5585,-2.5559,-2.5568,-2.558,-2.5585,-2.5596,-2.5606,-2.561,-2.5606,-2.5581,-2.5578,-2.5585,-2.5592,-2.5598,-2.5594,-2.5473,-2.5575,-2.5574,-2.5573,-2.5572,-2.5572,-2.5632,-2.5649,-2.5643,-2.5654,-2.5652,-2.5654,-2.5668,-2.5657,-2.5667,-2.5673,-2.5658,-2.5674,-2.567,-2.5673,-2.5672,-2.5684,-2.5666,-2.5678,-2.568,-2.5683,-2.5688,-2.5598,-2.5685,-2.5685,-2.5685,-2.5684,-2.5684,0,-2.5722,-2.5718,-2.5728,-2.573,-2.5739,-2.5716,-2.5716,-2.5725,-2.5739,-2.5738,-2.5745,-2.576,-2.577,-2.5757,-2.5765,-2.5778,-2.5766,-2.578,-2.5778,-2.5778,-2.5704,-2.5696,-2.5789,-2.5789,-2.5789,-2.5789,-2.5789,-2.5789,-2.577,-2.5796,-2.5786,-2.5812,-2.5806,-2.5822,-2.5824,-2.5826,-2.5824,-2.5842,-2.585,-2.5842,-2.5837,-2.5844,-2.5852,-2.5849,-2.5852,-2.587,-2.5862,-2.5793,-2.5783,-2.5773,-2.5765,-2.5872,-2.5872,-2.5935,-2.5935,-2.5936]},{"header":{"parameterUnit":"m.s-1","parameterCategory":1,"la1":30.2991,"la2":30.254,"lo1":-89.0895,"lo2":-89.0444,"dy":0.0017,"dx":0.0017,"nx":28,"ny":28,"refTime":"2024-04-17T09:00:00:Z","depth":0,"parameterNumber":3,"parameterNumberName":"V-component_of_WINDS"},"data":[0,0,0,0,0,0,0,0,0,0,0,0,0,0,0,0,0,0,0,0,0,0,0,0,0,0,0,0,0,0,0,0,0,0,0,0,0,0,0,0,0,0,0,0,0,0,0,0,0,0,0,0,0,0,0,0,0,0,1.3466,1.3467,0,1.3504,1.3505,1.3505,1.3506,1.3505,1.3505,1.3504,1.3545,1.3546,1.3548,0,0,0,0,0,0,0,0,0,0,0,0,0,1.3396,1.3397,1.3466,1.3467,1.3467,1.3504,1.3505,1.3505,1.3506,1.3505,1.3505,1.3504,1.3544,1.3546,1.3548,0,0,0,0,0,0,0,0,0,0,0,0,0,1.3429,1.3397,1.3466,1.3472,1.3473,1.3504,1.3505,1.3506,1.3506,1.3505,1.3505,1.3504,1.3544,1.3546,1.3548,1.3577,0,0,1.3555,1.3556,0,0,0,0,0,0,0,0,1.3428,1.3432,1.3471,1.3471,1.3473,1.35,1.3495,1.353,1.3506,1.3493,1.3504,1.3504,1.3531,1.3534,1.3543,1.3579,1.3581,1.3556,1.3557,1.3558,1.3559,0,0,0,0,0,0,0,1.3425,1.343,1.3481,1.3471,1.3472,1.3473,1.3477,1.3502,1.3516,1.3494,1.3495,1.3499,1.3531,1.354,1.3544,1.3581,1.3555,1.3558,1.3559,1.356,1.3646,1.3647,0,0,0,0,0,0,1.3421,1.3428,1.348,1.3482,1.3448,1.3475,1.348,1.3492,1.3515,1.3518,1.35,1.3499,1.3537,1.3541,1.3545,1.3582,1.3558,1.356,1.3561,1.3645,1.3646,1.3647,0,0,0,0,0,0,1.342,1.3426,1.3479,1.3456,1.3462,1.3477,1.3491,1.3493,1.3502,1.3519,1.3522,1.3507,1.3536,1.3542,1.357,1.3583,1.3561,1.3563,1.3644,1.3645,1.3647,1.3655,0,0,0,0,0,0,1.3418,1.3425,1.3436,1.3456,1.3464,1.3502,1.3491,1.3494,1.3506,1.3506,1.3527,1.3529,1.3536,1.3566,1.3572,1.3586,1.3565,1.3643,1.3644,1.3646,1.3654,1.3657,1.3659,0,0,0,0,0,1.3415,1.3437,1.3436,1.3443,1.3477,1.3502,1.3507,1.3514,1.3507,1.3518,1.353,1.3529,1.3581,1.3569,1.3575,1.3591,1.3642,1.3644,1.3646,1.3653,1.3656,1.3659,0,0,0,0,0,0,1.3418,1.3439,1.3439,1.3467,1.3483,1.3502,1.3517,1.3517,1.3536,1.3535,1.3543,1.3548,1.3576,1.3586,1.3572,1.3621,1.3611,1.3614,1.3614,1.3617,1.362,1.3617,1.3567,0,0,0,0,0,1.3422,1.344,1.3458,1.3481,1.3489,1.3502,1.3513,1.3517,1.3534,1.3541,1.3554,1.3571,1.3591,1.3605,1.3624,1.3655,1.3661,1.3669,1.3672,1.3674,1.3677,1.3697,1.3701,1.3654,1.3654,1.3654,0,0,1.343,1.3444,1.3455,1.3482,1.3495,1.3515,1.3507,1.3528,1.3544,1.3544,1.3572,1.3582,1.3602,1.3632,1.3646,1.3641,1.3691,1.3676,1.3678,1.368,1.3699,1.3704,1.3708,1.3655,1.3655,1.3655,0,0,1.3456,1.3467,1.3489,1.3502,1.3521,1.353,1.3535,1.3554,1.3561,1.3589,1.3591,1.3609,1.3644,1.3658,1.367,1.3703,1.3703,1.3709,1.3724,1.3742,1.3746,1.3749,1.3763,1.3768,1.3712,1.3712,1.3712,0,1.3463,1.3493,1.35,1.3522,1.3534,1.3536,1.3559,1.3571,1.3596,1.3605,1.3599,1.3644,1.3657,1.3692,1.37,1.3709,1.3716,1.3707,1.3745,1.3748,1.3752,1.3765,1.377,1.3712,1.3712,1.3712,1.3712,0,1.3503,1.3523,1.3539,1.3563,1.3577,1.3599,1.3611,1.3624,1.3628,1.3637,1.3666,1.3682,1.3706,1.3714,1.3718,1.375,1.3747,1.3743,1.3733,1.3757,1.3769,1.3774,1.3713,1.3713,1.3713,1.3713,0,0,1.3531,1.356,1.3565,1.3577,1.3599,1.3616,1.3639,1.3662,1.3675,1.3692,1.3712,1.3742,1.3739,1.3753,1.3758,1.3774,1.3802,1.3768,1.3769,1.3776,1.3841,1.3845,1.3851,1.3802,1.3803,1.3804,1.384,0,1.356,1.36,1.3608,1.3643,1.3664,1.3666,1.3686,1.3703,1.3712,1.3732,1.3743,1.3764,1.3758,1.3766,1.3782,1.3795,1.3815,1.3792,1.3823,1.3824,1.3819,1.3857,1.3861,1.3894,1.3845,1.3846,1.3846,0,1.3599,1.3618,1.3656,1.3677,1.3686,1.3704,1.3727,1.3745,1.3764,1.377,1.3786,1.379,1.3815,1.3803,1.3839,1.3824,1.3837,1.3845,1.3846,1.3851,1.3837,1.3864,1.3905,1.3911,1.3854,1.3853,1.3852,0,1.3618,1.3653,1.3681,1.369,1.3715,1.3728,1.3739,1.3758,1.3772,1.3792,1.3802,1.3825,1.3838,1.3856,1.3866,1.3856,1.3903,1.3891,1.391,1.391,1.392,1.392,1.3966,1.3926,1.3926,1.3926,1.3926,0,1.3651,1.3674,1.369,1.3707,1.3734,1.3743,1.3769,1.378,1.3797,1.3817,1.382,1.384,1.3852,1.3873,1.3881,1.3911,1.3916,1.3923,1.3926,1.3924,1.3923,1.3934,1.3932,1.3927,1.3927,1.3927,1.3926,0,1.3677,1.3688,1.3719,1.374,1.3746,1.3765,1.3784,1.3801,1.3811,1.3837,1.3844,1.386,1.3885,1.3897,1.3928,1.3934,1.3969,1.3969,1.3962,1.3963,1.3982,1.3981,1.4038,1.4047,1.3999,1.4,1.4,0,1.3698,1.3716,1.374,1.3753,1.3765,1.3787,1.3801,1.3811,1.3826,1.3851,1.3866,1.3891,1.3912,1.3953,1.3968,1.3993,1.3995,1.4013,1.3998,1.3997,1.3997,1.3997,1.4,1.4016,1.4016,1.4017,1.4017,0,1.3734,1.3739,1.376,1.3783,1.38,1.3819,1.3838,1.3849,1.3862,1.3879,1.3905,1.3922,1.3954,1.398,1.4006,1.4019,1.4021,1.4021,1.4027,1.4027,1.4023,1.4027,1.3971,1.402,1.402,1.402,1.4019,1.4019,1.3759,1.3777,1.3796,1.382,1.3835,1.3853,1.3871,1.3883,1.3905,1.3932,1.3936,1.3965,1.3986,1.4021,1.4034,1.4058,1.4054,1.4062,1.4064,1.4066,1.4069,1.4018,1.4062,1.4062,1.4062,1.4062,1.4062,0,1.3798,1.3811,1.3832,1.3858,1.3877,1.3877,1.3898,1.3914,1.3939,1.3958,1.3979,1.401,1.4035,1.4053,1.4079,1.4095,1.4097,1.4102,1.4101,1.4105,1.407,1.4063,1.41,1.41,1.41,1.41,1.41,1.41,1.382,1.385,1.3857,1.3895,1.3908,1.3935,1.3948,1.3965,1.398,1.4014,1.4036,1.4047,1.4066,1.4094,1.4118,1.4123,1.4133,1.4139,1.4144,1.4111,1.4107,1.4103,1.4097,1.4141,1.4141,1.4177,1.4178,1.4178]}]]